Redding, CA

5:31 PM PST on November 20, 2019 (GMT -0800)
Redding Municipal

Weather History for KRDD - September, 2019

Change the Weather History Date:

Tuesday, September 24, 2019

  Actual Average Record
Temperature  
Mean Temperature 86 °F -  
Max Temperature 99 °F 88 °F 107 °F (2003)
Min Temperature 73 °F 56 °F 44 °F (2000)
Degree Days  
Heating Degree Days 0    
Cooling Degree Days 21    
Growing Degree Days 36 (Base 50)    
Moisture  
Dew Point 49 °F    
Average Humidity 30    
Maximum Humidity 38    
Minimum Humidity 21    
Precipitation  
Precipitation 0.00 in 0.03 in 0.78 in (2014)
Month to date precipitation 0.24 0.47  
Year to date precipitation 32.51 21.60  
Sea Level Pressure  
Sea Level Pressure 29.97 in    
Wind  
Wind Speed 14 mph (North)    
Max Wind Speed 28 mph    
Max Gust Speed 36 mph    
Visibility 10 miles    
Events      
T = Trace of Precipitation, MM = Missing Value Source: NWS Daily Summary

Daily Weather History Graph

Daily Weather History Graph

Search for Another Location

Airport or City:

Astronomy

Sep. 24, 2019 Rise Set
Actual Time 6:58 AM PDT 7:03 PM PDT
Civil Twilight 6:31 AM PDT 7:30 PM PDT
Nautical Twilight 5:59 AM PDT 8:02 PM PDT
Astronomical Twilight 5:27 AM PDT 8:34 PM PDT
Moon 1:48 AM PDT (9/24) 4:54 PM PDT (9/24)
Length of Visible Light 12h 58m
Length of Day
12h 04m
Waning Crescent, 22% of the Moon is Illuminated
Sep 24
Waning Crescent
Sep 28
New
Oct 5
First Quarter
Oct 13
Full
Oct 21
Last Quarter

Hourly Weather History & Observations

Time (PDT) Temp. Heat Index Dew Point Humidity Pressure Visibility Wind Dir Wind Speed Gust Speed Precip Events Conditions
12:53 AM 77.0 °F - 44.1 °F 31% 30.04 in 10.0 mi North 13.8 mph - N/A   Clear
1:53 AM 75.9 °F - 44.1 °F 32% 30.05 in 10.0 mi North 11.5 mph - N/A   Clear
2:53 AM 75.0 °F - 46.0 °F 36% 30.05 in 10.0 mi North 12.7 mph - N/A   Clear
3:53 AM 75.0 °F - 46.0 °F 36% 30.05 in 10.0 mi North 13.8 mph - N/A   Clear
4:53 AM 75.0 °F - 46.0 °F 36% 30.05 in 10.0 mi North 13.8 mph 21.9 mph N/A   Clear
5:53 AM 73.9 °F - 46.0 °F 37% 30.06 in 10.0 mi North 8.1 mph - N/A   Clear
6:53 AM 75.9 °F - 44.1 °F 32% 30.07 in 10.0 mi North 11.5 mph 17.3 mph N/A   Clear
8:53 AM 80.1 °F - 45.0 °F 29% 30.07 in 10.0 mi North 17.3 mph 24.2 mph N/A   Clear
9:53 AM 84.9 °F - 43.0 °F 23% 30.07 in 10.0 mi North 17.3 mph 25.3 mph N/A   Clear
11:53 AM 90.0 °F - 46.9 °F 23% 30.03 in 10.0 mi North 17.3 mph 32.2 mph N/A   Clear
12:53 PM 93.9 °F - 48.9 °F 21% 29.99 in 10.0 mi NNE 23.0 mph 31.1 mph N/A   Clear
1:53 PM 96.1 °F - 50.0 °F 21% 29.95 in 10.0 mi North 18.4 mph 26.5 mph N/A   Clear
2:53 PM 96.1 °F - 51.1 °F 22% 29.92 in 10.0 mi North 16.1 mph 29.9 mph N/A   Clear
3:53 PM 97.0 °F - 52.0 °F 22% 29.90 in 10.0 mi North 16.1 mph 23.0 mph N/A   Clear
4:53 PM 98.1 °F 95.7 °F 53.1 °F 22% 29.88 in 10.0 mi NNE 15.0 mph - N/A   Clear
5:53 PM 97.0 °F 94.6 °F 54.0 °F 23% 29.86 in 10.0 mi NNE 16.1 mph - N/A   Clear
6:53 PM 93.9 °F 91.7 °F 54.0 °F 26% 29.87 in 10.0 mi North 10.4 mph - N/A   Clear
7:53 PM 91.0 °F - 52.0 °F 26% 29.87 in 10.0 mi North 6.9 mph - N/A   Clear
8:53 PM 88.0 °F 85.7 °F 53.1 °F 30% 29.88 in 10.0 mi North 8.1 mph - N/A   Clear
9:53 PM 87.1 °F 84.9 °F 53.1 °F 31% 29.88 in 10.0 mi North 10.4 mph - N/A   Clear
10:53 PM 87.1 °F - 52.0 °F 30% 29.89 in 10.0 mi NNW 11.5 mph - N/A   Clear
11:53 PM 86.0 °F 84.0 °F 53.1 °F 32% 29.89 in 10.0 mi North 11.5 mph 20.7 mph N/A   Clear